Zurück zum Katalog

MINOTAUR R/B

LostVLEO
NORAD 42925·ROCKET BODY·🇺🇸 United States

Gestartet Aug 26, 2017 von Cape Canaveral Space Force Station

Loading…

Nächste Überflüge (nächste 24 Stunden)

TLE

VeraltetSource: Space-Track

Epoche: Aug 4, 2024, 11:05 UTC

1 42925U 17050E   24217.46245176  .00005433  00000-0  40856-3 0  9997
2 42925   0.0506 188.6312 0008982 322.7484 208.6697 14.95381459378590

Verfolge MINOTAUR R/B in Echtzeit mit AllMySat

Download on the App Store